Davenport, IA

3:37 PM CST on February 24, 2017 (GMT -0600)
Davenport Municipal

Weather History for KDVN - December, 2013

Change the Weather History Date:

Sunday, December 1, 2013

  Actual Average Record
Temperature  
Mean Temperature 35 °F 31 °F  
Max Temperature 45 °F 39 °F 62 °F (1962)
Min Temperature 25 °F 23 °F 6 °F (2005)
Degree Days  
Heating Degree Days 30 34  
Month to date heating degree days 30 34  
Since 1 July heating degree days 1443 1382  
Cooling Degree Days 0 0  
Month to date cooling degree days 0 0  
Year to date cooling degree days 938 786  
Moisture  
Dew Point 27 °F    
Average Humidity 61    
Maximum Humidity 92    
Minimum Humidity 30    
Precipitation  
Precipitation T in 0.07 in 0.61 in (1981)
Month to date precipitation T 0.07  
Year to date precipitation 33.77 34.37  
Snow  
Snow T in - - ()
Month to date snowfall T  
Since 1 July snowfall 3.3  
Snow Depth 0.00 in    
Sea Level Pressure  
Sea Level Pressure 30.08 in    
Wind  
Wind Speed 6 mph (NNE)    
Max Wind Speed 12 mph    
Max Gust Speed 15 mph    
Visibility 6 miles    
Events      
T = Trace of Precipitation, MM = Missing Value Source: NWS Daily Summary

Daily Weather History Graph

Daily Weather History Graph

Search for Another Location

Airport or City:

Trip Planner

Search our weather history database for the weather conditions in past years. The results will help you decide how hot, cold, wet, or windy it might be!

Date:

Astronomy

Dec. 01, 2013 Rise Set
Actual Time 7:09 AM CST 4:32 PM CST
Civil Twilight 6:38 AM CST 5:03 PM CST
Nautical Twilight 6:04 AM CST 5:38 PM CST
Astronomical Twilight 5:31 AM CST 6:11 PM CST
Moon 5:27 AM CST (12/1) 3:43 PM CST (12/1)
Length of Visible Light 10h 24m
Length of Day
9h 23m
Waning Crescent, 2% of the Moon is Illuminated
Dec 1
Waning Crescent
Dec 2
New
Dec 9
First Quarter
Dec 17
Full
Dec 25
Last Quarter

Hourly Weather History & Observations

Time (CST) Temp. Windchill Dew Point Humidity Pressure Visibility Wind Dir Wind Speed Gust Speed Precip Events Conditions
12:52 AM 27.0 °F 21.6 °F 24.1 °F 89% 30.10 in 6.0 mi West 4.6 mph - N/A   Clear
1:52 AM 28.0 °F 24.2 °F 26.1 °F 92% 30.10 in 5.0 mi NW 3.5 mph - N/A   Clear
2:52 AM 28.0 °F 24.2 °F 24.1 °F 85% 30.11 in 6.0 mi WNW 3.5 mph - N/A   Clear
3:52 AM 30.0 °F 24.1 °F 27.0 °F 88% 30.12 in 6.0 mi NW 5.8 mph - N/A   Clear
4:52 AM 30.9 °F 24.3 °F 27.0 °F 85% 30.12 in 6.0 mi NNW 6.9 mph - N/A   Clear
5:52 AM 30.9 °F 23.5 °F 27.0 °F 85% 30.12 in 6.0 mi NNW 8.1 mph - N/A   Clear
6:52 AM 28.9 °F 21.1 °F 26.1 °F 89% 30.14 in 5.0 mi North 8.1 mph - N/A   Clear
7:52 AM 27.0 °F 19.5 °F 24.1 °F 89% 30.15 in 4.0 mi North 6.9 mph - N/A   Clear
8:52 AM 34.0 °F 28.0 °F 28.0 °F 79% 30.16 in 5.0 mi NNE 6.9 mph - N/A   Haze
9:52 AM 37.9 °F 32.7 °F 28.0 °F 68% 30.16 in 6.0 mi NNE 6.9 mph - N/A   Haze
10:52 AM 39.9 °F 35.1 °F 28.9 °F 65% 30.14 in 6.0 mi NNE 6.9 mph - N/A   Haze
11:52 AM 43.0 °F 40.3 °F 28.0 °F 56% 30.13 in 7.0 mi North 4.6 mph - N/A   Clear
12:52 PM 59.0 °F - 28.9 °F 32% 30.09 in 7.0 mi ENE 3.5 mph - N/A   Clear
1:52 PM 52.0 °F - 28.0 °F 40% 30.07 in 7.0 mi Calm Calm - N/A   Clear
2:52 PM 55.0 °F - 27.0 °F 34% 30.05 in 7.0 mi NE 3.5 mph - N/A   Clear
3:52 PM 45.0 °F 43.5 °F 27.0 °F 49% 30.05 in 7.0 mi NNE 3.5 mph - N/A   Scattered Clouds
4:52 PM 48.9 °F - 27.0 °F 43% 30.04 in 7.0 mi NE 5.8 mph - N/A   Mostly Cloudy
5:52 PM 50.0 °F - 28.0 °F 43% 30.04 in 6.0 mi NE 6.9 mph - N/A   Haze
6:52 PM 46.0 °F 43.1 °F 28.0 °F 50% 30.04 in 7.0 mi ENE 5.8 mph - N/A   Overcast
7:52 PM 51.1 °F - 28.0 °F 41% 30.04 in 7.0 mi East 8.1 mph - N/A   Overcast
8:52 PM 57.9 °F - 27.0 °F 31% 30.02 in 7.0 mi East 6.9 mph - N/A   Overcast
9:52 PM 45.0 °F 42.6 °F 27.0 °F 49% 30.03 in 7.0 mi NE 4.6 mph - N/A   Overcast
10:52 PM 46.0 °F 42.5 °F 28.0 °F 50% 29.99 in 6.0 mi ENE 6.9 mph - N/A   Haze
11:52 PM 44.1 °F 40.8 °F 28.0 °F 53% 29.97 in 6.0 mi East 5.8 mph - N/A   Haze